When you browse on this site, cookies collect data to enhance your experience and personalize the content and advertising you see.
Visit our Privacy Policy to learn more. By continuing to use the site, you agree to this use of cookies and data.
EN

Hourly Weather Cova da Piedade

Today, 14 August, Friday

Time Temperature Precipitation Wind Pressure Humidity
00:00 +18°C° 0 mm 4 mps 761 mmHg 86%
01:00 +17°C° 0 mm 4 mps 761 mmHg 87%
02:00 +17°C° 0 mm 4 mps 760 mmHg 88%
03:00 +17°C° 0 mm 4 mps 761 mmHg 89%
04:00 +17°C° 0 mm 4 mps 761 mmHg 90%
05:00 +17°C° 0 mm 4 mps 761 mmHg 91%
06:00 +19°C° 0 mm 4 mps 761 mmHg 81%
07:00 +21°C° 0 mm 4 mps 761 mmHg 70%
08:00 +23°C° 0 mm 4 mps 761 mmHg 60%
09:00 +25°C° 0 mm 5 mps 761 mmHg 54%
10:00 +27°C° 0 mm 5 mps 761 mmHg 48%
11:00 +28°C° 0 mm 5 mps 761 mmHg 43%
12:00 +28°C° 0 mm 6 mps 761 mmHg 43%
13:00 +28°C° 0 mm 6 mps 760 mmHg 44%
14:00 +28°C° 0 mm 7 mps 760 mmHg 44%
15:00 +27°C° 0 mm 7 mps 760 mmHg 49%
16:00 +26°C° 0 mm 7 mps 760 mmHg 53%
17:00 +24°C° 0 mm 7 mps 760 mmHg 58%
18:00 +22°C° 0 mm 6 mps 761 mmHg 66%
19:00 +20°C° 0 mm 5 mps 761 mmHg 75%
20:00 +19°C° 0 mm 4 mps 761 mmHg 83%
21:00 +19°C° 0 mm 4 mps 761 mmHg 85%
22:00 +18°C° 0 mm 4 mps 761 mmHg 86%
23:00 +18°C° 0 mm 3 mps 761 mmHg 88%

Tomorrow, 15 August, Saturday

Time Temperature Precipitation Wind Pressure Humidity
00:00 +18°C° 0 mm 3 mps 761 mmHg 89%
01:00 +18°C° 0 mm 3 mps 761 mmHg 90%
02:00 +18°C° 0 mm 3 mps 760 mmHg 90%
03:00 +17°C° 0 mm 3 mps 760 mmHg 91%
04:00 +17°C° 0 mm 3 mps 761 mmHg 91%
05:00 +17°C° 0 mm 3 mps 761 mmHg 91%
06:00 +19°C° 0 mm 3 mps 761 mmHg 80%
07:00 +21°C° 0 mm 3 mps 761 mmHg 70%
08:00 +24°C° 0 mm 3 mps 761 mmHg 59%
09:00 +25°C° 0 mm 4 mps 761 mmHg 55%
10:00 +26°C° 0 mm 4 mps 761 mmHg 50%
11:00 +27°C° 0 mm 4 mps 761 mmHg 45%
12:00 +27°C° 0 mm 5 mps 761 mmHg 45%
13:00 +27°C° 0 mm 5 mps 761 mmHg 45%
14:00 +27°C° 0 mm 6 mps 760 mmHg 45%
15:00 +26°C° 0 mm 6 mps 761 mmHg 49%
16:00 +24°C° 0 mm 6 mps 761 mmHg 53%
17:00 +23°C° 0 mm 6 mps 761 mmHg 57%
18:00 +22°C° 0 mm 5 mps 761 mmHg 66%
19:00 +21°C° 0 mm 5 mps 761 mmHg 76%
20:00 +19°C° 0 mm 4 mps 761 mmHg 85%
21:00 +19°C° 0 mm 4 mps 761 mmHg 86%
22:00 +18°C° 0 mm 3 mps 761 mmHg 87%
23:00 +18°C° 0 mm 3 mps 761 mmHg 88%

Day after tomorrow, 16 August, Sunday

Time Temperature Precipitation Wind Pressure Humidity
00:00 +18°C° 0 mm 3 mps 761 mmHg 88%
01:00 +18°C° 0 mm 3 mps 761 mmHg 89%
02:00 +18°C° 0 mm 3 mps 761 mmHg 90%
03:00 +18°C° 0 mm 3 mps 761 mmHg 90%
04:00 +17°C° 0 mm 3 mps 761 mmHg 90%
05:00 +17°C° 0 mm 2 mps 761 mmHg 91%
06:00 +19°C° 0 mm 3 mps 761 mmHg 81%
07:00 +21°C° 0 mm 3 mps 761 mmHg 71%
08:00 +24°C° 0 mm 3 mps 761 mmHg 62%
09:00 +25°C° 0 mm 4 mps 761 mmHg 56%
10:00 +26°C° 0 mm 4 mps 761 mmHg 50%
11:00 +28°C° 0 mm 4 mps 761 mmHg 44%
12:00 +27°C° 0 mm 5 mps 761 mmHg 45%
13:00 +27°C° 0 mm 5 mps 761 mmHg 46%
14:00 +27°C° 0 mm 6 mps 761 mmHg 47%
15:00 +26°C° 0 mm 5 mps 761 mmHg 52%
16:00 +25°C° 0 mm 5 mps 760 mmHg 57%
17:00 +23°C° 0 mm 5 mps 760 mmHg 61%
18:00 +22°C° 0 mm 4 mps 761 mmHg 70%
19:00 +21°C° 0 mm 4 mps 761 mmHg 78%
20:00 +19°C° 0 mm 3 mps 761 mmHg 87%
21:00 +19°C° 0 mm 3 mps 761 mmHg 88%
22:00 +19°C° 0 mm 2 mps 761 mmHg 89%
23:00 +19°C° 0 mm 2 mps 761 mmHg 90%

17 August, Monday

Time Temperature Precipitation Wind Pressure Humidity
00:00 +19°C° 0 mm 2 mps 761 mmHg 90%
01:00 +20°C° 0 mm 1 mps 760 mmHg 91%
02:00 +20°C° 0 mm 1 mps 760 mmHg 91%
03:00 +20°C° 0 mm 2 mps 760 mmHg 92%
04:00 +20°C° 0 mm 2 mps 760 mmHg 92%
05:00 +21°C° 0 mm 2 mps 759 mmHg 92%
06:00 +23°C° 0 mm 2 mps 760 mmHg 88%
07:00 +24°C° 0 mm 3 mps 760 mmHg 85%
08:00 +25°C° 0 mm 3 mps 760 mmHg 81%
09:00 +26°C° 0 mm 4 mps 760 mmHg 75%
10:00 +27°C° 0 mm 4 mps 760 mmHg 68%
11:00 +28°C° 0 mm 4 mps 760 mmHg 62%
12:00 +28°C° 0 mm 5 mps 760 mmHg 61%
13:00 +28°C° 0 mm 5 mps 760 mmHg 60%
14:00 +28°C° 0 mm 5 mps 760 mmHg 59%
15:00 +27°C° 0 mm 5 mps 760 mmHg 64%
16:00 +26°C° 0 mm 5 mps 760 mmHg 69%
17:00 +25°C° 0 mm 5 mps 760 mmHg 73%
18:00 +23°C° 0 mm 4 mps 760 mmHg 80%
19:00 +22°C° 0 mm 4 mps 761 mmHg 86%
20:00 +21°C° 0 mm 3 mps 761 mmHg 92%
21:00 +21°C° 0 mm 3 mps 761 mmHg 93%
22:00 +20°C° 0 mm 3 mps 761 mmHg 93%
23:00 +20°C° 0 mm 2 mps 761 mmHg 94%

18 August, Tuesday

Time Temperature Precipitation Wind Pressure Humidity
00:00 +20°C° 0 mm 2 mps 761 mmHg 93%
01:00 +20°C° 0 mm 3 mps 761 mmHg 93%
02:00 +20°C° 0 mm 3 mps 760 mmHg 92%
03:00 +19°C° 0 mm 2 mps 760 mmHg 92%
04:00 +19°C° 0 mm 2 mps 760 mmHg 93%
05:00 +19°C° 0 mm 2 mps 760 mmHg 93%
06:00 +20°C° 0 mm 2 mps 761 mmHg 85%
07:00 +23°C° 0 mm 2 mps 761 mmHg 77%
08:00 +24°C° 0 mm 2 mps 761 mmHg 68%
09:00 +26°C° 0 mm 3 mps 761 mmHg 60%
10:00 +28°C° 0 mm 3 mps 761 mmHg 52%
11:00 +29°C° 0 mm 4 mps 761 mmHg 44%
12:00 +30°C° 0 mm 5 mps 760 mmHg 43%
13:00 +30°C° 0 mm 6 mps 760 mmHg 43%
14:00 +30°C° 0 mm 7 mps 760 mmHg 42%
15:00 +28°C° 0 mm 7 mps 760 mmHg 47%
16:00 +27°C° 0 mm 7 mps 759 mmHg 51%
17:00 +26°C° 0 mm 7 mps 759 mmHg 55%
18:00 +23°C° 0 mm 6 mps 760 mmHg 62%
19:00 +21°C° 0 mm 6 mps 760 mmHg 70%
20:00 +19°C° 0 mm 5 mps 760 mmHg 77%
21:00 +19°C° 0 mm 5 mps 760 mmHg 79%
22:00 +19°C° 0 mm 5 mps 760 mmHg 82%
23:00 +18°C° 0 mm 4 mps 760 mmHg 84%

19 August, Wednesday

Time Temperature Precipitation Wind Pressure Humidity
00:00 +18°C° 0 mm 4 mps 760 mmHg 85%
01:00 +18°C° 0 mm 4 mps 759 mmHg 85%
02:00 +18°C° 0 mm 3 mps 759 mmHg 86%
03:00 +17°C° 0 mm 3 mps 759 mmHg 87%
04:00 +17°C° 0 mm 3 mps 758 mmHg 87%
05:00 +17°C° 0 mm 2 mps 758 mmHg 88%
06:00 +20°C° 0 mm 3 mps 758 mmHg 75%
07:00 +22°C° 0 mm 3 mps 758 mmHg 63%
08:00 +26°C° 0 mm 3 mps 758 mmHg 51%
09:00 +28°C° 0 mm 4 mps 758 mmHg 44%
10:00 +30°C° 0 mm 4 mps 758 mmHg 37%
11:00 +33°C° 0 mm 4 mps 757 mmHg 30%
12:00 +33°C° 0 mm 5 mps 757 mmHg 32%
13:00 +33°C° 0 mm 6 mps 757 mmHg 34%
14:00 +33°C° 0 mm 7 mps 756 mmHg 36%
15:00 +32°C° 0 mm 7 mps 756 mmHg 44%
16:00 +29°C° 0 mm 7 mps 756 mmHg 51%
17:00 +28°C° 0 mm 7 mps 756 mmHg 59%
18:00 +26°C° 0 mm 6 mps 756 mmHg 67%
19:00 +25°C° 0 mm 5 mps 756 mmHg 76%
20:00 +22°C° 0 mm 5 mps 757 mmHg 85%
21:00 +22°C° 0 mm 4 mps 757 mmHg 87%
22:00 +22°C° 0 mm 4 mps 756 mmHg 89%
23:00 +21°C° 0 mm 4 mps 756 mmHg 92%
Show more